Location: Bottens
(46.6171°N, 6.6605°E)
Time: 19:45:53
(UTC+00:00)

EXPRESS MD2 - Pass Details

Date: 20 June 2021
Orbit: 262 x 3945 km, 49.9° (Epoch: 01 August)

Event Time Altitude Azimuth Distance (km) Brightness Sun altitude
Exits shadow 01:44:57 - 246° (WSW) 4,696 7.5 -14.0°
Reaches altitude 10° 01:46:28 10° 247° (WSW) 4,154 7.3 -13.9°
Maximum altitude 01:56:09 90° 325° (NW) 965 4.5 -13.0°
Drops below altitude 10° 02:00:39 10° 69° (ENE) 2,008 7.0 -12.6°
Sets 02:02:17 0° 70° (ENE) 2,668 7.8 -12.4°
